Regional Weather Roundup
Issued by NWS Charleston, SC

Current Version | Previous Version | Text Only | Print | Product List | Glossary Off
Versions: 1 2 3 4 5 6 7 8 9 10 11 12 13 14 15 16 17 18 19 20 21 22 23 24 25 26 27 28 29 30 31 32 33 34 35 36 37 38 39 40 41 42 43 44 45 46 47 48 49 50

000
ASUS42 KCHS 010113
RWRCHS

REGIONAL WEATHER ROUNDUP
NATIONAL WEATHER SERVICE CHARLESTON SC
900 PM EDT WED AUG 31 2016

NOTE: "FAIR" INDICATES FEW OR NO CLOUDS BELOW 12,000 FEET WITH NO
SIGNIFICANT WEATHER AND/OR OBSTRUCTIONS TO VISIBILITY.

NOT ALL STATIONS ARE QUALITY CONTROLLED. USE DATA WITH CAUTION...
ESPECIALLY DEWPOINT OBSERVATIONS.

SCZ027-030-031-034>040-042>050-010200-
...SOUTHEAST SOUTH CAROLINA...

CITY           SKY/WX    TMP DP  RH WIND       PRES   REMARKS
N CHARLESTON   PTCLDY    79  72  79 NE5       29.89R
WATERFRONT PRK   N/A     80  75  84 NE9       29.85F
MOUNT PLEASANT FAIR      79  73  83 CALM      29.88S
JOHNS ISLAND   FAIR      79  75  89 NE7       29.88R
PINOPOLIS        N/A     79  73  83 VRB2      29.82F
MONCKS CORNER  FAIR      75  72  88 CALM      29.89R
SUMMERVILLE    FAIR      79  73  83 CALM      29.90R
BEAUFORT MCAS  CLOUDY    81  73  76 E3        29.89R
BEAUFORT ARPT  MOCLDY    79  73  83 E6        29.88S
HILTON HEAD IS CLOUDY    81  75  83 VRB7      29.89S
WALTERBORO     PTCLDY    79  79 100 E3        29.91R
ALLENDALE      FAIR      79  72  78 CALM      29.90R

...SOUTHERN MIDLANDS AND PEE DEE...

CITY           SKY/WX    TMP DP  RH WIND       PRES   REMARKS
GEORGETOWN     FAIR      77  72  83 E8        29.90S
KINGSTREE      FAIR      73  72  94 CALM      29.91R
ORANGEBURG     CLEAR     77  72  84 NE6       29.91R
BARNWELL       NOT AVBL
AIKEN          FAIR      77  72  83 E5        29.95S
MANNING        FAIR      73  72  94 CALM      29.91R
COLUMBIA       CLEAR     78  71  79 E6        29.90S
SUMTER         CLOUDY    74  72  93 NE3       29.90R
FLORENCE       CLOUDY    77  71  82 CALM      29.92R
MYRTLE BEACH   MOCLDY    81  66  61 E9        29.92F
N MYRTLE BEACH PTCLDY    80  73  79 E9        29.91S

$$

GAZ063-065-086>088-099>101-113>116-118-119-134>141-150-010200-
...SOUTHEAST GEORGIA...

CITY           SKY/WX    TMP DP  RH WIND       PRES   REMARKS
SAVANNAH ARPT  CLOUDY    79  72  79 E6        29.90R
HUNTER AAF     CLOUDY    79  77  94 E3        29.87R
FORT STEWART   CLOUDY    78  75  89 CALM      29.88R
STATESBORO     PTCLDY    80  76  85 CALM      29.90R
SYLVANIA       NOT AVBL
CLAXTON        FAIR      78  78  99 CALM      29.90R

...CSRA...CENTRAL AND FAR SOUTHEAST GEORGIA...

CITY           SKY/WX    TMP DP  RH WIND       PRES   REMARKS
THOMSON        CLEAR     81  75  81 CALM      29.94S
AUGUSTA-BUSH   PTCLDY    76  74  93 CALM      29.90R
AUGUSTA-DANIEL PTCLDY    83  69  62 E7        29.91R
SWAINSBORO     FAIR      79  73  83 CALM      29.92R
VIDALIA        CLOUDY    79  75  89 E3        29.91R
EASTMAN        FAIR      82  68  62 SE3       29.92R
HAZLEHURST     MOCLDY    81  78  92 CALM      29.89R
ALMA           CLOUDY    77  77 100 E5        29.89R
WAYCROSS         N/A     78  78 100 S5        29.85R
JESUP          CLOUDY    79  79 100 CALM      29.91R
BAXLEY         CLOUDY    79  79 100 S3        29.90R
BRUNSWICK      RAIN      77  77 100 S6        29.92R
SAINT SIMONS   LGT RAIN  75  75 100 NW5       29.91S FOG

$$

SCZ027-028-034-036>038-045-046-048>050-GAZ119-141-010200-
...LAKE AND SUPPLEMENTAL COASTAL OBSERVATIONS...

STATION/POSITION TIME  TEMP    WIND        PRES    WAVE   SWELL
                       AIR SEA DIR/SP/G            HT/PER HT/PER/DIR
                 (UTC) (F)     (DEG/KT/KT) (MB)    (FT/S) (FT/S/D)
WINYAH BAY       2345   81     100/ 11     1012.0
LAKE MURRAY      0000   81     110/  7/  9 1011.9F
ACE BASIN NERRS  2345   80      40/  2     1012.0
FORT PULASKI     0000   81 84                N/A
SAPELO ISLAND    0000   77      90/  2     1012.0R

$$

ANZ835-935-AMZ111-154-330-350-352-354-370-450-454-472-010200-
...C-MAN AND BUOY OBSERVATIONS...

STATION/POSITION TIME  TEMP    WIND        PRES    WAVE   SWELL
                       AIR SEA DIR/SP/G            HT/PER HT/PER/DIR
                 (UTC) (F)     (DEG/KT/KT) (MB)    (FT/S) (FT/S/D)
BUOY 41004       0050   79 85   60/ 16/ 21 1010.4F   5/ 5   2/ 80/11
BUOY 41008       0050   80 84  190/  8/ 10 1011.8R   4/ 7   3/130/ 7
FOLLY BEACH CMAN 0000   81      70/ 15/ 17 1011.7F
CAPERS NEARSHORE 0008   81 83   70/ 14/ 21 1011.2F
FRIPP NEARSHORE  0008   81 85   70/ 12/ 17 1010.6S


STATION/POSITION TIME  TEMP    WIND        PRES    WAVE   SWELL
                       AIR SEA DIR/SP/G            HT/PER HT/PER/DIR
                 (UTC) (F)     (DEG/KT/KT) (MB)    (FT/S) (FT/S/D)
5E ST. MARYS GA  0001      85                N/A     4/ 6   2/ 80/12
FRYING PAN BUOY  0000   76 84   70/ 10/ 12 1013.0F
BUOY 41025       0050   82 85  180/  4/  4 1013.9R   3/11   3/110/11
CAPE LOOKOUT NC  0000   79     220/  2/  2 1013.3S
BUOY 41002       0050   81 84  180/  6/  8 1014.9R   3/11   3/ 30/11
BUOY 41010       NOT AVBL
ST AUGUSTINE FL  0100   79 83  220/  7/  9 1014.2R


$$



USA.gov is the U.S. government's official web portal to all federal, state and local government web resources and services.